EDT,Max TemperatureF,Mean TemperatureF,Min TemperatureF,Max Dew PointF,MeanDew PointF,Min DewpointF,Max Humidity, Mean Humidity, Min Humidity, Max Sea Level PressureIn, Mean Sea Level PressureIn, Min Sea Level PressureIn, Max VisibilityMiles, Mean VisibilityMiles, Min VisibilityMiles, Max Wind SpeedMPH, Mean Wind SpeedMPH, Max Gust SpeedMPH,PrecipitationIn, CloudCover, Events, WindDirDegrees
2012-6-1,64,59,54,59,53,48,100,82,60,30.09,30.02,29.90,10,9,1,15,8,20,0.00,3,,56
2012-6-2,60,56,53,57,54,51,100,94,88,30.04,29.86,29.71,10,7,2,17,11,29,0.31,8,Rain,126
2012-6-3,63,58,53,60,54,48,100,89,72,29.71,29.64,29.57,10,6,0,18,9,32,0.13,8,Fog-Rain,310
2012-6-4,54,52,50,54,50,46,100,91,82,29.74,29.61,29.50,10,5,2,20,11,32,0.24,8,Rain,31
2012-6-5,55,52,50,49,47,45,94,83,75,29.94,29.82,29.72,10,9,2,13,9,20,0.01,8,Rain,27
2012-6-6,63,55,48,50,48,46,93,80,56,30.02,29.97,29.93,10,10,10,8,2,,0.01,5,,72
2012-6-7,68,58,51,57,54,49,100,87,68,30.00,29.97,29.94,10,8,0,8,1,,0.02,5,Fog-Rain,190
2012-6-8,66,58,51,59,55,50,100,90,77,29.95,29.91,29.80,10,6,0,12,2,20,0.01,4,Fog,211
2012-6-9,75,68,60,59,52,40,90,64,29,29.96,29.87,29.78,10,10,10,9,6,21,0.00,0,Thunderstorm,256
2012-6-10,75,65,55,59,51,42,96,67,33,30.25,30.11,29.96,10,10,6,13,6,,0.00,0,,47
2012-6-11,68,59,52,54,52,49,94,78,54,30.34,30.29,30.25,10,10,10,10,4,,0.00,3,,154
2012-6-12,68,60,55,59,56,54,100,87,73,30.25,30.16,30.03,10,10,8,10,6,,0.00,7,,192
2012-6-13,63,58,55,61,56,53,100,92,86,30.10,30.03,29.98,10,8,2,9,5,,0.27,8,Rain,168
2012-6-14,66,62,57,57,53,45,97,79,47,30.25,30.19,30.10,10,8,2,14,3,22,0.06,6,Rain,31
2012-6-15,66,62,57,55,51,45,75,66,58,30.31,30.27,30.21,10,10,10,15,6,23,0.00,0,,32
2012-6-16,64,60,57,55,52,48,83,75,67,30.35,30.31,30.26,10,10,10,15,8,20,0.00,5,,49
2012-6-17,63,58,55,52,50,48,86,73,64,30.27,30.22,30.15,10,10,10,15,9,21,0.00,5,,65
2012-6-18,63,58,52,55,53,49,89,83,75,30.19,30.17,30.14,10,10,9,8,5,,0.00,6,,77
2012-6-19,69,60,51,61,56,49,94,84,70,30.21,30.16,30.10,10,10,8,13,5,21,0.00,5,,215
2012-6-20,91,76,62,72,65,60,94,83,55,30.06,29.98,29.86,10,9,5,12,7,21,0.00,2,,223
2012-6-21,93,80,70,69,67,64,93,66,41,29.85,29.80,29.75,10,9,5,9,4,20,0.00,0,,252
2012-6-22,91,80,70,70,66,64,90,67,41,29.79,29.75,29.73,10,9,6,9,2,16,0.00,1,Rain,241
2012-6-23,80,70,61,68,65,58,93,82,68,29.92,29.82,29.78,10,9,6,16,4,29,0.02,3,Rain,262
2012-6-24,82,70,59,64,59,53,97,72,39,29.95,29.93,29.91,10,10,10,9,3,16,0.00,0,,232
2012-6-25,75,68,62,66,63,60,96,89,73,29.90,29.77,29.67,10,9,2,13,7,24,0.34,6,Rain,194
2012-6-26,73,66,59,63,60,55,100,90,66,29.65,29.59,29.55,10,8,1,8,4,,0.40,7,Rain-Thunderstorm,224
2012-6-27,77,66,57,62,57,53,96,72,55,29.75,29.67,29.62,10,10,10,13,5,25,0.01,4,Rain,238
2012-6-28,81,72,64,64,61,56,90,70,48,29.77,29.75,29.73,10,10,10,10,5,16,0.00,3,,229
2012-6-29,80,72,66,68,67,64,93,84,68,29.76,29.67,29.60,10,9,5,10,7,20,0.00,2,,213
2012-6-30,90,75,63,67,63,56,93,69,35,29.76,29.71,29.65,10,9,3,13,4,23,0.00,0,,240